Flag for Romania Weather past 2 weeks in Constanța, Romania

Now
46 °F

Passing clouds.


Feels Like: 46 °F
Forecast: 42 / 51 °F
Wind: 2 mph from West

Location: Constanta

Current Time: Apr 2, 2015 at 4:31:08 AM

Latest Report: Apr 2, 2015 at 4:00 AM


Visibility: 6 mi

Pressure: 29.78 "Hg

Humidity: 82%

Dew point: 41 °F

Location of ConstanțaLocation

Historic Weather in Constanța — Graph

°F

Constanța temperature yesterday

Maximum temperature yesterday: 58 °F (at 5:00 PM)
Minimum temperature yesterday: 48 °F (at 10:00 AM)
Average temperature yesterday: 53 °F

Past Weeks' High & Low Weather Summary

 TemperatureHumidityPressure
High58 °F (Apr 1, 5:00 PM)100% (Mar 27, 7:00 PM)30.42 "Hg (Mar 27, 7:00 PM)
Low30 °F (Mar 24, 6:00 AM)44% (Mar 22, 8:00 PM)29.59 "Hg (Apr 1, 8:00 AM)
Average45 °F80%29.98 "Hg
* Reported Mar 18 2:00 AM — Apr 2 3:00 AM, Constanța, Weather by CustomWeather, © 2015

Note: Actual official high and low records may vary slightly from our data, if they occured in-between our weather recording intervals... More about our weather records

Advertising

Constanța weather history for previous 24 hours

 ConditionsComfort  
Time TempWeatherWind HumidityBarometerVisibility
3:00 AM
Thu, Apr 2
46 °FPassing clouds.1 mph85%29.77 "Hg6 mi
2:00 AM48 °FPassing clouds.2 mph80%29.77 "Hg6 mi
1:00 AM48 °FPassing clouds.2 mph76%29.75 "Hg6 mi
11:00 PM
Wed, Apr 1
51 °FOvercast.3 mph67%29.72 "Hg6 mi
10:00 PM52 °FOvercast.5 mph65%29.72 "Hg6 mi
9:00 PM53 °FOvercast.5 mph66%29.72 "Hg6 mi
8:00 PM54 °FOvercast.5 mph65%29.71 "Hg6 mi
7:00 PM56 °FOvercast.6 mph62%29.70 "Hg6 mi
6:00 PM58 °FOvercast.6 mph54%29.67 "Hg6 mi
5:00 PM58 °FOvercast.9 mph53%29.65 "Hg6 mi
4:00 PM57 °FOvercast.7 mph55%29.67 "Hg6 mi
3:00 PM57 °FOvercast.9 mph60%29.69 "Hg6 mi
2:00 PM56 °FPartly sunny.9 mph63%29.68 "Hg6 mi
1:00 PM57 °FPartly sunny.9 mph65%29.67 "Hg6 mi
12:00 PM56 °FPartly sunny.5 mph73%29.67 "Hg6 mi
11:00 AM50 °FSprinkles. Overcast.3 mph82%29.65 "Hg6 mi
10:00 AM48 °FSprinkles. Overcast.6 mph83%29.65 "Hg6 mi
9:00 AM52 °FPartly sunny.5 mph66%29.62 "Hg6 mi
8:00 AM49 °FOvercast.N/A72%29.59 "Hg6 mi
7:00 AM49 °FLight rain. Overcast.N/A72%29.60 "Hg6 mi
5:00 AM50 °FOvercast.2 mph65%29.60 "Hg6 mi
4:00 AM51 °FPassing clouds.5 mph54%29.62 "Hg6 mi
Weather by CustomWeather, © 2015

See weather overviewHow to use our weather pages